Mount Ida, AR

5:04 AM CDT on June 25, 2017 (GMT -0500)
Mount Ida

Weather History for KMWT - March, 2013

Change the Weather History Date:

Tuesday, March 5, 2013

  Actual Average (KHOT) Record (KHOT)
Temperature  
Mean Temperature 48 °F -  
Max Temperature 57 °F 60 °F 81 °F (1956)
Min Temperature 39 °F 37 °F 16 °F (1960)
Degree Days  
Heating Degree Days 17    
Moisture  
Dew Point 30 °F    
Average Humidity 55    
Maximum Humidity 77    
Minimum Humidity 26    
Precipitation  
Precipitation 0.00 in - - ()
Sea Level Pressure  
Sea Level Pressure 30.06 in    
Wind  
Wind Speed 8 mph (NW)    
Max Wind Speed 16 mph    
Max Gust Speed 31 mph    
Visibility 10 miles    
Events Rain    
Averages and records for this station are not official NWS values.
T = Trace of Precipitation, MM = Missing Value Source: NWS Daily Summary

Daily Weather History Graph

Daily Weather History Graph

Search for Another Location

Airport or City:

Trip Planner

Search our weather history database for the weather conditions in past years. The results will help you decide how hot, cold, wet, or windy it might be!

Date:

Astronomy

Mar. 05, 2013 Rise Set
Actual Time 6:37 AM CST 6:14 PM CST
Civil Twilight 6:12 AM CST 6:39 PM CST
Nautical Twilight 5:43 AM CST 7:08 PM CST
Astronomical Twilight 5:14 AM CST 7:37 PM CST
Moon 1:39 AM CST (3/5) 12:04 PM CST (3/5)
Length of Visible Light 12h 26m
Length of Day
11h 36m
Last Quarter, 40% of the Moon is Illuminated
Mar 5
Last Quarter
Mar 11
New
Mar 19
First Quarter
Mar 27
Full
Apr 2
Last Quarter

Hourly Weather History & Observations

Time (CST) Temp. Windchill Dew Point Humidity Pressure Visibility Wind Dir Wind Speed Gust Speed Precip Events Conditions
12:53 AM 55.9 °F - 48.9 °F 77% 29.74 in 10.0 mi Calm Calm - N/A   Partly Cloudy
1:53 AM 57.0 °F - 46.9 °F 69% 29.78 in 10.0 mi Variable 4.6 mph - N/A   Partly Cloudy
2:17 AM 55.4 °F - 48.2 °F 77% 29.81 in 10.0 mi WNW 8.1 mph - N/A   Mostly Cloudy
2:37 AM 53.6 °F - 46.4 °F 77% 29.82 in 10.0 mi NNW 9.2 mph 18.4 mph N/A   Scattered Clouds
2:46 AM 53.6 °F - 44.6 °F 72% 29.82 in 10.0 mi NNW 13.8 mph 21.9 mph N/A   Mostly Cloudy
2:53 AM 52.0 °F - 43.0 °F 71% 29.82 in 10.0 mi NNW 10.4 mph 21.9 mph N/A   Mostly Cloudy
3:22 AM 48.2 °F - 39.2 °F 71% 29.85 in 10.0 mi NW 10.4 mph 18.4 mph N/A   Scattered Clouds
3:53 AM 48.9 °F - 37.0 °F 64% 29.89 in 10.0 mi NW 12.7 mph 24.2 mph N/A   Mostly Cloudy
4:53 AM 45.0 °F 41.2 °F 35.1 °F 68% 29.92 in 10.0 mi Variable 6.9 mph 26.5 mph N/A   Mostly Cloudy
5:21 AM 44.6 °F 38.4 °F 35.6 °F 71% 29.94 in 9.0 mi NNW 12.7 mph 21.9 mph 0.00 in Rain Light Rain
5:53 AM 44.1 °F 38.1 °F 36.0 °F 73% 29.97 in 10.0 mi NNW 11.5 mph 20.7 mph 0.00 in   Overcast
6:53 AM 43.0 °F 37.7 °F 35.1 °F 74% 30.01 in 10.0 mi NNW 9.2 mph - 0.00 in   Overcast
7:21 AM 42.8 °F 35.8 °F 33.8 °F 70% 30.04 in 10.0 mi NW 13.8 mph 23.0 mph N/A   Mostly Cloudy
7:53 AM 43.0 °F 36.4 °F 34.0 °F 71% 30.08 in 10.0 mi NW 12.7 mph 25.3 mph N/A   Overcast
8:48 AM 42.8 °F 36.2 °F 30.2 °F 61% 30.11 in 10.0 mi NNW 12.7 mph 31.1 mph N/A   Overcast
8:53 AM 43.0 °F 35.4 °F 30.9 °F 62% 30.12 in 10.0 mi NNW 16.1 mph 31.1 mph N/A   Overcast
9:53 AM 46.0 °F 39.3 °F 30.0 °F 54% 30.12 in 10.0 mi NW 16.1 mph 29.9 mph N/A   Mostly Cloudy
10:53 AM 48.9 °F - 30.0 °F 48% 30.13 in 10.0 mi NW 15.0 mph 28.8 mph N/A   Partly Cloudy
11:53 AM 48.9 °F - 25.0 °F 39% 30.15 in 10.0 mi NW 13.8 mph 25.3 mph N/A   Clear
12:53 PM 50.0 °F - 16.0 °F 26% 30.16 in 10.0 mi NW 10.4 mph 21.9 mph N/A   Clear
1:53 PM 51.1 °F - 17.1 °F 26% 30.16 in 10.0 mi Variable 5.8 mph 19.6 mph N/A   Clear
2:53 PM 51.1 °F - 17.1 °F 26% 30.17 in 10.0 mi NNW 11.5 mph 26.5 mph N/A   Clear
3:53 PM 50.0 °F - 18.0 °F 28% 30.18 in 10.0 mi NW 13.8 mph 25.3 mph N/A   Clear
4:53 PM 48.9 °F - 18.0 °F 29% 30.19 in 10.0 mi NNW 12.7 mph 27.6 mph N/A   Clear
5:53 PM 46.9 °F - 19.0 °F 33% 30.20 in 10.0 mi NW 8.1 mph - N/A   Clear
6:53 PM 43.0 °F 41.3 °F 21.9 °F 43% 30.22 in 10.0 mi WNW 3.5 mph - N/A   Clear
7:53 PM 41.0 °F 39.0 °F 21.0 °F 45% 30.24 in 10.0 mi WNW 3.5 mph - N/A   Clear
8:53 PM 39.0 °F 36.8 °F 21.9 °F 50% 30.25 in 10.0 mi NW 3.5 mph - N/A   Clear
9:53 PM 39.9 °F - 21.0 °F 47% 30.27 in 10.0 mi Calm Calm - N/A   Clear
10:53 PM 39.9 °F 36.7 °F 21.0 °F 47% 30.29 in 10.0 mi NNW 4.6 mph - N/A   Clear
11:53 PM 39.0 °F 35.7 °F 21.9 °F 50% 30.28 in 10.0 mi NW 4.6 mph - N/A   Clear